• In Czech Republic
  • List of Countries
  • For 7 days
  • Water Temperature
  • Satellite Maps
  • Weather Map
  • Weather Widgets
  • user-avatar
    Login

    Hourly Weather Amar

    Today, 19 August, Saturday

    Time Temperature Precipitation Wind Pressure Humidity
    00:00 +36°C° 0 mm 1 mps 747 mmHg 51%
    01:00 +36°C° 0 mm 1 mps 747 mmHg 51%
    02:00 +36°C° 0 mm 1 mps 747 mmHg 50%
    03:00 +35°C° 0 mm 1 mps 747 mmHg 50%
    04:00 +37°C° 0 mm 2 mps 747 mmHg 50%
    05:00 +37°C° 0 mm 3 mps 747 mmHg 49%
    06:00 +37°C° 0 mm 4 mps 747 mmHg 48%
    07:00 +40°C° 0 mm 4 mps 747 mmHg 42%
    08:00 +42°C° 0 mm 4 mps 748 mmHg 36%
    09:00 +45°C° 0 mm 5 mps 748 mmHg 30%
    10:00 +45°C° 0 mm 4 mps 748 mmHg 27%
    11:00 +48°C° 0 mm 4 mps 747 mmHg 23%
    12:00 +49°C° 0 mm 4 mps 747 mmHg 20%
    13:00 +48°C° 0 mm 4 mps 747 mmHg 22%
    14:00 +48°C° 0 mm 5 mps 746 mmHg 24%
    15:00 +47°C° 0 mm 5 mps 746 mmHg 26%
    16:00 +46°C° 0 mm 5 mps 746 mmHg 31%
    17:00 +44°C° 0 mm 4 mps 746 mmHg 36%
    18:00 +42°C° 0 mm 4 mps 746 mmHg 40%
    19:00 +40°C° 0 mm 3 mps 746 mmHg 43%
    20:00 +39°C° 0 mm 3 mps 746 mmHg 47%
    21:00 +39°C° 0 mm 2 mps 747 mmHg 50%
    22:00 +38°C° 0 mm 2 mps 747 mmHg 51%
    23:00 +38°C° 0 mm 2 mps 747 mmHg 53%

    Tomorrow, 20 August, Sunday

    Time Temperature Precipitation Wind Pressure Humidity
    00:00 +37°C° 0 mm 2 mps 747 mmHg 55%
    01:00 +37°C° 0 mm 2 mps 746 mmHg 58%
    02:00 +36°C° 0 mm 1 mps 746 mmHg 61%
    03:00 +35°C° 0 mm 1 mps 746 mmHg 63%
    04:00 +36°C° 0 mm 1 mps 747 mmHg 62%
    05:00 +36°C° 0 mm 1 mps 747 mmHg 60%
    06:00 +36°C° 0 mm 1 mps 747 mmHg 59%
    07:00 +37°C° 0 mm 1 mps 748 mmHg 53%
    08:00 +39°C° 0 mm 1 mps 748 mmHg 48%
    09:00 +41°C° 0 mm 2 mps 748 mmHg 43%
    10:00 +41°C° 0 mm 2 mps 748 mmHg 42%
    11:00 +42°C° 0 mm 2 mps 748 mmHg 42%
    12:00 +43°C° 0 mm 3 mps 747 mmHg 41%
    13:00 +44°C° 0 mm 3 mps 747 mmHg 39%
    14:00 +45°C° 0 mm 4 mps 747 mmHg 38%
    15:00 +45°C° 0 mm 4 mps 746 mmHg 36%
    16:00 +44°C° 0 mm 4 mps 746 mmHg 38%
    17:00 +45°C° 0 mm 5 mps 746 mmHg 39%
    18:00 +43°C° 0 mm 5 mps 746 mmHg 41%
    19:00 +42°C° 0 mm 4 mps 746 mmHg 43%
    20:00 +42°C° 0 mm 4 mps 747 mmHg 44%
    21:00 +40°C° 0 mm 3 mps 747 mmHg 46%
    22:00 +39°C° 0 mm 3 mps 747 mmHg 46%
    23:00 +39°C° 0 mm 3 mps 747 mmHg 47%

    Day after tomorrow, 21 August, Monday

    Time Temperature Precipitation Wind Pressure Humidity
    00:00 +39°C° 0 mm 3 mps 747 mmHg 47%
    01:00 +38°C° 0 mm 3 mps 746 mmHg 52%
    02:00 +38°C° 0 mm 4 mps 746 mmHg 57%
    03:00 +37°C° 0 mm 4 mps 746 mmHg 62%
    04:00 +37°C° 0 mm 4 mps 746 mmHg 62%
    05:00 +37°C° 0 mm 3 mps 747 mmHg 62%
    06:00 +37°C° 0 mm 3 mps 747 mmHg 61%
    07:00 +38°C° 0 mm 3 mps 747 mmHg 55%
    08:00 +39°C° 0 mm 2 mps 747 mmHg 49%
    09:00 +40°C° 0 mm 2 mps 748 mmHg 43%
    10:00 +42°C° 0 mm 2 mps 747 mmHg 39%
    11:00 +43°C° 0 mm 2 mps 747 mmHg 34%
    12:00 +45°C° 0 mm 2 mps 747 mmHg 30%
    13:00 +45°C° 0 mm 3 mps 746 mmHg 29%
    14:00 +47°C° 0 mm 4 mps 746 mmHg 28%
    15:00 +47°C° 0 mm 5 mps 745 mmHg 27%
    16:00 +46°C° 0 mm 5 mps 745 mmHg 31%
    17:00 +43°C° 0 mm 5 mps 745 mmHg 36%
    18:00 +42°C° 0 mm 6 mps 745 mmHg 41%
    19:00 +42°C° 0 mm 5 mps 745 mmHg 42%
    20:00 +41°C° 0 mm 4 mps 746 mmHg 43%
    21:00 +41°C° 0 mm 4 mps 746 mmHg 44%
    22:00 +40°C° 0 mm 4 mps 746 mmHg 44%
    23:00 +40°C° 0 mm 4 mps 746 mmHg 44%

    22 August, Tuesday

    Time Temperature Precipitation Wind Pressure Humidity
    00:00 +40°C° 0 mm 4 mps 745 mmHg 43%
    01:00 +38°C° 0 mm 3 mps 745 mmHg 46%
    02:00 +37°C° 0 mm 3 mps 745 mmHg 49%
    03:00 +37°C° 0 mm 3 mps 745 mmHg 52%
    04:00 +37°C° 0 mm 3 mps 745 mmHg 51%
    05:00 +37°C° 0 mm 2 mps 745 mmHg 50%
    06:00 +37°C° 0 mm 2 mps 746 mmHg 50%
    07:00 +38°C° 0 mm 2 mps 746 mmHg 45%
    08:00 +39°C° 0 mm 2 mps 746 mmHg 40%
    09:00 +41°C° 0 mm 1 mps 747 mmHg 35%
    10:00 +42°C° 0 mm 2 mps 746 mmHg 32%
    11:00 +43°C° 0 mm 2 mps 746 mmHg 29%
    12:00 +45°C° 0 mm 2 mps 746 mmHg 26%
    13:00 +45°C° 0 mm 3 mps 745 mmHg 25%
    14:00 +45°C° 0 mm 3 mps 745 mmHg 24%
    15:00 +47°C° 0 mm 4 mps 744 mmHg 22%
    16:00 +45°C° 0 mm 5 mps 744 mmHg 28%
    17:00 +43°C° 0 mm 5 mps 744 mmHg 33%
    18:00 +42°C° 0 mm 6 mps 744 mmHg 38%
    19:00 +42°C° 0 mm 6 mps 745 mmHg 39%
    20:00 +41°C° 0 mm 5 mps 745 mmHg 40%
    21:00 +41°C° 0 mm 5 mps 745 mmHg 40%
    22:00 +40°C° 0 mm 5 mps 745 mmHg 40%
    23:00 +40°C° 0 mm 4 mps 745 mmHg 39%

    23 August, Wednesday

    Time Temperature Precipitation Wind Pressure Humidity
    00:00 +40°C° 0 mm 4 mps 745 mmHg 39%
    01:00 +38°C° 0 mm 4 mps 745 mmHg 42%
    02:00 +38°C° 0 mm 4 mps 745 mmHg 45%
    03:00 +37°C° 0 mm 4 mps 745 mmHg 48%
    04:00 +37°C° 0 mm 3 mps 745 mmHg 48%
    05:00 +37°C° 0 mm 3 mps 746 mmHg 49%
    06:00 +37°C° 0 mm 3 mps 746 mmHg 49%
    07:00 +38°C° 0 mm 3 mps 747 mmHg 43%
    08:00 +40°C° 0 mm 3 mps 747 mmHg 37%
    09:00 +42°C° 0 mm 3 mps 748 mmHg 31%
    10:00 +44°C° 0 mm 3 mps 747 mmHg 28%
    11:00 +45°C° 0 mm 2 mps 747 mmHg 25%
    12:00 +46°C° 0 mm 2 mps 747 mmHg 22%
    13:00 +46°C° 0 mm 3 mps 746 mmHg 21%
    14:00 +46°C° 0 mm 3 mps 746 mmHg 21%
    15:00 +47°C° 0 mm 4 mps 746 mmHg 21%
    16:00 +46°C° 0 mm 5 mps 746 mmHg 25%
    17:00 +43°C° 0 mm 5 mps 746 mmHg 29%
    18:00 +42°C° 0 mm 5 mps 746 mmHg 34%
    19:00 +42°C° 0 mm 5 mps 747 mmHg 35%
    20:00 +41°C° 0 mm 5 mps 747 mmHg 36%
    21:00 +40°C° 0 mm 4 mps 747 mmHg 37%
    22:00 +40°C° 0 mm 4 mps 747 mmHg 37%
    23:00 +39°C° 0 mm 3 mps 747 mmHg 36%

    24 August, Thursday

    Time Temperature Precipitation Wind Pressure Humidity
    00:00 +38°C° 0 mm 3 mps 747 mmHg 35%
    01:00 +38°C° 0 mm 3 mps 747 mmHg 35%
    02:00 +37°C° 0 mm 3 mps 747 mmHg 34%
    03:00 +37°C° 0 mm 3 mps 747 mmHg 34%
    04:00 +37°C° 0 mm 2 mps 747 mmHg 37%
    05:00 +37°C° 0 mm 2 mps 748 mmHg 40%
    06:00 +37°C° 0 mm 2 mps 748 mmHg 43%
    07:00 +38°C° 0 mm 2 mps 748 mmHg 38%
    08:00 +40°C° 0 mm 2 mps 749 mmHg 34%
    09:00 +42°C° 0 mm 2 mps 749 mmHg 29%
    10:00 +43°C° 0 mm 1 mps 749 mmHg 26%
    11:00 +43°C° 0 mm 1 mps 748 mmHg 24%
    12:00 +44°C° 0 mm 1 mps 748 mmHg 21%
    13:00 +46°C° 0 mm 2 mps 748 mmHg 20%
    14:00 +46°C° 0 mm 3 mps 747 mmHg 19%
    15:00 +47°C° 0 mm 4 mps 747 mmHg 19%
    16:00 +45°C° 0 mm 4 mps 747 mmHg 23%
    17:00 +43°C° 0 mm 4 mps 747 mmHg 27%
    18:00 +42°C° 0 mm 4 mps 747 mmHg 31%
    19:00 +41°C° 0 mm 4 mps 748 mmHg 33%
    20:00 +40°C° 0 mm 3 mps 748 mmHg 35%
    21:00 +39°C° 0 mm 3 mps 748 mmHg 37%
    22:00 +38°C° 0 mm 3 mps 748 mmHg 38%
    23:00 +38°C° 0 mm 2 mps 748 mmHg 39%
    Show more